Find Starlink 31434

NORAD ID: 59215 Int'l Des: 2024-046 Owner: SPXS Country: US Constellation: starlink operational
LEOCIRCULAR

リアルタイム位置

3D地球を読み込み中...

Starlink 31434について

説明を読み込み中...

次回通過

Passes for default location (London). Set your location on the main map for personalized predictions.

高度履歴

Loading altitude history...

軌道要素

1 59215U 24046Q 26126.58948211 -.00000788 00000-0 -12193-4 0 9998
2 59215 53.1639 245.7367 0001888 91.0981 269.0238 15.34364691121914
Epoch: May 6, 2026 • Age: 6 hours

現在のステータス

高度 481.4 km
速度 7.62 km/s
衛星直下点 -50.21°S, 15.23°E
打ち上げ日 Mar 11, 2024
運用期間 2.1 years
タイプ internet

技術仕様

分類 Payload
質量 730.00 kg
乾燥質量 700.00 kg
総質量 730.00 kg
長さ 0.30 m
直径 4.10 m
スパン 29.00 m
形状 Box + pan
製造者 SPXS
バスタイプ Starlink V2M
フェーズステータス In Orbit
所有者/国 SPXS/US

Most Searched